Terug naar catalogus

STARLINK-37063

ActiefCommunicatieVLEO
NORAD 68079·PAYLOAD·🇺🇸 United States

Gelanceerd Mar 4, 2026 vanaf Vandenberg Space Force Base

Loading…

Volgende Passages (komende 24 uur)

TLE

VersSource: CelesTrak SupGP

Epoch: Sep 15, 2026, 04:04 UTC

1 68079C 26042L   26258.16993056  .00070624  00000+0  20865-2 0  2585
2 68079  53.1604  14.6454 0001303  88.0585 183.5588 15.34357720    12

Volg STARLINK-37063 in realtime met AllMySat

Download on the App Store